Regional Weather Roundup
Issued by NWS Green Bay, WI

Home | Current Version | Previous Version | Text Only | Print | Product List | Glossary On
Versions: 1 2 3 4 5 6 7 8 9 10 11 12 13 14 15 16 17 18 19 20 21 22 23 24 25 26 27 28 29 30 31 32 33 34 35 36 37 38 39 40 41 42 43 44 45 46 47 48 49 50
000
ASUS43 KGRB 310910
RWRGRB

NORTH-CENTRAL AND NORTHEAST WISCONSIN REGIONAL WEATHER ROUNDUP
NATIONAL WEATHER SERVICE GREEN BAY WI
300 AM CST SAT JAN 31 2015

WIZ005-009-010>012-018-019-311000-
NORTH CENTRAL WISCONSIN

CITY           SKY/WX    TMP DP  RH WIND       PRES   REMARKS
IRONWOOD       CLOUDY    19  16  86 SW5       30.06S
MANITOWISH WTR CLOUDY    17  11  78 SW6       30.07S WCI   8
ARBOR VITAE    CLOUDY    17   9  71 CALM      30.07S
EAGLE RIVER    CLOUDY    16   7  67 SW6       30.07S WCI   7
LAND O LAKES   CLOUDY    17   9  72 SW5       30.07S WCI  10
RHINELANDER    CLOUDY    16   7  67 SW8       30.08S WCI   5
PHILLIPS       CLOUDY    19  12  75 SW6       30.09S
ANTIGO         CLOUDY    16   8  71 SW7       30.09F WCI   7
TOMAHAWK       CLOUDY    17   8  68 CALM      30.09F
MERRILL        CLOUDY    19   9  66 W8        30.11F WCI   9
$$

WIZ013-073-311000-
NORTHEAST WISCONSIN

CITY           SKY/WX    TMP DP  RH WIND       PRES   REMARKS
IRON MOUNTAIN  CLOUDY    17   8  67 S3        30.09F
MARINETTE      CLOUDY    19  10  68 SW9       30.16F WCI   9
OCONTO         CLOUDY    20  11  67 MISG      30.18F
$$

WIZ017-030-035>037-045-311000-
CENTRAL WISCONSIN

CITY           SKY/WX    TMP DP  RH WIND       PRES   REMARKS
MEDFORD        CLOUDY    18  10  70 S6        30.09F
WAUSAU         CLOUDY    18   8  65 S6        30.11F WCI  10
MOSINEE        CLOUDY    18  12  79 S6        30.14F WCI   9
MARSHFIELD     CLOUDY    18   9  68 S5        30.13F
WISC RAPIDS    CLOUDY    19   9  65 CALM      30.17F
STEVENS POINT  CLOUDY    17  10  72 S5        30.15F WCI  10
WAUPACA        CLOUDY    20  11  68 S5        30.18F
SHAWANO        CLOUDY    21  11  65 SW5       30.17F
CLINTONVILLE   CLOUDY    21  10  63 S6        30.17F
$$

WIZ038-039-048-051-311000-
FOX VALLEY

CITY           SKY/WX    TMP DP  RH WIND       PRES   REMARKS
NWS GREEN BAY  CLOUDY    20  13  74 S8        30.19F
APPLETON       CLOUDY    19  12  73 S7        30.18F
OSHKOSH        MOCLDY    18  11  74 S8        30.19F WCI   8
FOND DU LAC    PTCLDY    20  12  71 S8        30.20F
$$

WIZ022-050-052-311000-
EAST CENTRAL WISCONSIN

CITY           SKY/WX    TMP DP  RH WIND       PRES   REMARKS
STURGEON BAY   CLOUDY    19  10  68 SW8       30.19F WCI   9
MANITOWOC      CLOUDY    22  15  75 S5        30.22F
SHEBOYGAN      CLOUDY    20  14  77 SW6       30.22F
$$

LMZ563-521-522-541>543-311000-
LAKESHORE

STATION/POSITION TIME  TEMP    WIND        PRES    VSBY  WAVE
                       AIR SEA DIR/SP/G                  HT/PER
                 (UTC) (F)     (DEG/KT/KT) (MB)    (MI)  (FT/S)
SHEBOYGAN LKSHOR 0900   22     200/  7/  9 1024.8F
KEWAUNEE LKSHORE 0900   21     210/  8/ 10 1021.9F
NORTHPORT PIER   0900   20     190/  3/  7 1022.0S
SISTER BAY LKSHO 0900   21     190/  5/  6   N/A
CHAMBERS ISLAND  0900   20     180/  6/  9 1022.0S
MENOMINEE LKSHOR 0900   20     200/  6     1022.1F
$$


USA.gov is the U.S. government's official web portal to all federal, state and local government web resources and services.